Location: Morrison Observatory
(41.7012°N, 86.2315°W)
Time: 13:53:34
(UTC-04:00)

Daily predictions for brighter satellites

Satellite Brightness Start Highest point End
(mag) Time Altitude Azimuth Time Altitude Azimuth Time Altitude Azimuth
Cosmos 1461 3.9 21:35:13 10° SW 21:39:50 59° NW 21:44:20 10° NNE
Okean 1-7 3.8 21:35:40 10° NNW 21:39:53 55° W 21:44:05 10° S
Resurs 01 Rocket 4.3 21:41:22 10° SW 21:44:25 18° W 21:47:28 10° NW
Cosmos 2056 Rocket 3.5 21:43:17 10° S 21:48:22 62° ESE 21:53:27 10° NNE
CENTAUR R/B 3.3 21:40:42 10° NW 21:48:36 82° WSW 21:56:56 10° SSE
Cosmos 1371 Rocket 4.1 21:45:16 10° SSW 21:50:35 89° ESE 21:55:54 10° NNE
Cosmos 1674 Rocket 3.8 21:49:28 10° N 21:53:52 52° E 21:58:11 10° SSE
Sich 1 Rocket 4.2 21:50:23 10° SSE 21:54:39 40° E 21:58:57 10° NNE
COSMOS 2406 3.3 21:57:46 10° NNW 22:03:34 84° WSW 22:09:16 10° SSE
NOSS 2-2 (D) 3.6 21:59:29 10° SW 22:03:35 87° NW 22:08:23 10° NE
ATLAS 5 CENTAUR R/B 2.6 21:58:23 10° NW 22:04:25 78° WSW 22:10:52 10° SSE
ARGOS 4.4 22:01:08 11° ESE 22:05:16 26° ENE 22:09:38 10° N
SL-27 R/B 2.5 22:02:07 10° NNW 22:05:48 75° ENE 22:09:10 12° SSE
COS B Rocket 3.9 22:03:02 10° NNE 22:06:58 38° E 22:10:09 12° SSE
Okean 3 4.5 22:08:25 10° NNE 22:12:14 30° ENE 22:14:59 16° SE
ALOS 4.3 22:08:48 10° SSW 22:12:43 26° W 22:16:39 10° NW
COSMOS 2487 4.0 22:10:55 10° N 22:13:54 24° ENE 22:15:53 16° ESE
PSLV R/B 3.9 22:12:35 18° SE 22:14:19 33° ENE 22:17:01 10° N
Cosmos 1238 Rocket 3.2 22:15:21 10° NNE 22:18:16 33° E 22:20:11 19° SE
NOSS 2-2 (C) 4.1 22:14:15 10° SW 22:18:19 63° NW 22:23:07 10° NNE
Coronas F rocket 3.4 22:16:12 10° SW 22:18:32 28° WNW 22:20:54 10° NNW
Cosmos 2278 Rocket 2.7 22:13:39 10° S 22:18:49 38° ESE 22:24:01 10° NE
EO 1 Delta rocket 4.3 22:12:44 10° NNE 22:19:10 71° E 22:24:17 10° S
Cosmos 1844 3.7 22:16:42 10° S 22:22:21 63° ESE 22:28:06 10° NNE
SPOT 5 3.1 22:17:34 12° SSE 22:22:26 71° ENE 22:27:47 10° N
Cosmos 1975 Rocket 3.9 22:18:53 10° N 22:22:50 33° ENE 22:25:16 19° SE
Cosmos 1825 2.6 22:21:19 14° SSE 22:24:17 44° E 22:27:56 10° NNE
ISS -2.3 22:22:00 10° SSW 22:24:44 25° SE 22:25:57 20° E
Envisat 3.1 22:20:25 10° S 22:25:30 79° WSW 22:30:36 10° NNW
Cosmos 1844 Rocket 2.7 22:21:23 10° SSW 22:27:03 89° WNW 22:32:44 10° NNE
Cosmos 1862 3.4 22:24:04 10° S 22:28:01 59° E 22:32:03 10° NNE
Terra 3.7 22:25:43 12° E 22:28:03 16° ENE 22:30:59 10° NNE
deb Chang Zheng 4 3.9 22:26:31 10° N 22:30:55 72° WNW 22:35:19 10° SSW
YAOGAN 6 2.7 22:29:22 22° SE 22:31:21 53° ENE 22:34:48 10° N
ERBS 3.8 22:28:29 10° WNW 22:31:32 29° SW 22:33:42 16° S
Cosmos 1408 2.7 22:29:47 16° SSE 22:32:30 54° E 22:36:05 10° NNE
Cosmos 1908 Rocket 3.5 22:28:09 10° S 22:32:32 82° E 22:36:59 10° N
Cosmos 2154 Rocket 3.9 22:27:42 10° S 22:33:56 80° E 22:40:09 10° N
TIMED 4.4 22:30:34 10° SSW 22:34:54 76° ESE 22:39:17 10° NNE
Cosmos 1733 Rocket 4.5 22:32:34 10° SSW 22:36:43 39° WNW 22:40:51 10° N
H-2A R/B 3.4 22:34:39 17° ESE 22:37:30 26° ENE 22:41:53 10° N
Cosmos 1378 Rocket 3.4 22:33:15 10° N 22:37:34 78° E 22:40:33 20° SSE
Cosmos 2082 Rocket 3.6 22:33:10 10° N 22:37:54 26° NE 22:41:15 16° E
MetOp-A 4.1 22:34:31 16° SSE 22:38:54 84° ENE 22:44:16 10° NNW
USA 245 3.2 22:40:07 31° SE 22:41:19 49° ENE 22:45:00 10° N
SL-8 R/B 4.4 22:37:56 10° W 22:42:41 57° NNW 22:47:26 10° ENE
Cosmos 1242 Rocket 3.3 22:39:22 10° N 22:42:47 37° ENE 22:43:57 29° ESE
GPS 2-05 Rocket1 4.3 22:41:00 10° SW 22:43:27 22° S 22:43:27 22° S
Cosmos 407 Rocket 3.9 22:39:03 10° NNW 22:44:15 62° WSW 22:48:30 16° S
BREEZE-M DEB (TANK) 4.3 22:44:26 10° WSW 22:46:15 18° SSW 22:47:09 17° S
Cosmos 2084 3.0 22:45:45 10° SSW 22:49:34 68° SE 22:53:23 10° NE
CZ-4C R/B 4.5 22:49:12 24° E 22:50:20 29° ENE 22:53:49 10° N
Meteor 1-27 Rocket 3.9 22:44:51 10° NNW 22:50:24 69° W 22:55:04 14° S
Cosmos 1452 Rocket 3.6 22:46:13 10° SSW 22:51:28 83° WNW 22:56:47 10° NNE
Cosmos 2297 4.3 22:48:47 23° SSE 22:51:30 36° ESE 22:56:40 10° NE
SPOT 1/Viking Rocket 3.5 22:49:15 23° SSE 22:52:30 75° ENE 22:57:43 10° N
SL-08 RB Rocket 4.0 22:51:07 28° SE 22:53:17 54° ENE 22:57:48 10° N
Cosmos 1140 Rocket 3.5 22:50:39 10° NNW 22:55:46 64° ENE 22:58:17 30° SE
Cosmos 489 Rocket 4.4 22:50:53 10° NNW 22:57:07 75° ENE 23:00:45 26° SSE
Cosmos 1606 3.9 22:57:00 10° NNW 23:00:43 41° W 23:03:33 16° SSW
H-2A R/B 3.7 22:58:39 10° SSW 23:02:25 29° W 23:06:09 10° NW
NOAA 11 4.2 22:59:37 26° SSE 23:02:49 80° ENE 23:08:20 10° N
Cosmos 2366 rocket 4.3 23:01:48 27° SSE 23:04:51 47° E 23:10:51 10° NNE
USA 234 3.4 23:01:28 10° ENE 23:07:43 47° SE 23:13:55 10° SSW
Atlas Centaur 2 3.5 23:06:22 10° SW 23:06:28 10° SSW 23:06:28 10° SSW
CZ-4B R/B 3.3 23:04:25 10° NNE 23:09:26 89° WNW 23:13:01 18° SSW
CZ-4 R/B 3.6 23:11:13 10° NNE 23:15:55 79° ESE 23:18:11 30° S
Cosmos 1184 Rocket 4.2 23:18:32 20° SW 23:20:25 38° WNW 23:23:35 10° N
Cosmos 1850 Rocket 4.0 23:19:13 10° NNW 23:24:34 86° ENE 23:26:29 41° SSE
BREEZE-M DEB (TANK) 4.1 23:23:48 10° NW 23:25:32 19° N 23:28:10 10° NE
Okean 2 Rocket 3.7 23:22:51 19° SSW 23:25:50 53° W 23:30:11 10° N
DMSP B5D2-2 4.2 23:22:59 10° NNE 23:28:05 52° E 23:29:16 43° SE
Cosmos 2218 Rocket 4.0 23:25:46 27° S 23:29:32 84° E 23:35:58 10° N
Okean 1 4.5 23:27:07 10° NNE 23:30:38 30° ENE 23:30:38 30° ENE
IGS 5A 3.5 23:32:35 55° ESE 23:33:01 58° ENE 23:37:07 10° N
Meteor 1-20 Rocket 4.5 23:33:04 42° SE 23:34:15 49° E 23:39:35 10° NNE
DELTA 2 DEB (DPAF) 4.1 23:36:15 52° S 23:37:17 78° WSW 23:41:47 10° NNW
Meteor 1-25 Rocket 4.3 23:39:52 44° SSE 23:41:43 68° E 23:47:31 10° NNE
Cosmos 1741 Rocket 4.1 23:38:30 10° NNW 23:43:41 67° WSW 23:45:10 45° S
ARGOS 4.0 23:42:39 25° SSW 23:45:15 42° W 23:50:21 10° NNW
Cosmos 1727 Rocket 3.9 23:39:43 10° N 23:45:56 85° E 23:48:04 44° SSE
Landsat 7 4.2 23:48:20 44° SSW 23:49:34 58° W 23:54:17 10° NNW
Meteor 1-18 Rocket 4.3 23:46:11 10° N 23:52:07 88° W 23:53:53 48° S
